Year,Month,Day,Hour,Minute,Value (Times are PST for temperature in C)
2017,10,22,10,14,11.60
2017,10,22,10,15,11.60
2017,10,22,10,16,11.70
2017,10,22,10,17,11.70
2017,10,22,10,18,11.70
2017,10,22,10,19,11.80
2017,10,22,10,20,11.90
2017,10,22,10,21,11.90
2017,10,22,10,22,11.90
2017,10,22,10,23,12.00
2017,10,22,10,24,12.00
2017,10,22,10,25,12.10
2017,10,22,10,26,12.10
2017,10,22,10,27,12.20
2017,10,22,10,28,12.20
2017,10,22,10,29,12.20
2017,10,22,10,30,12.30
2017,10,22,10,31,12.30
2017,10,22,10,32,12.30
2017,10,22,10,33,12.30
2017,10,22,10,34,12.40
2017,10,22,10,35,12.40
2017,10,22,10,36,12.40
2017,10,22,10,37,12.40
2017,10,22,10,38,12.40
2017,10,22,10,39,12.40
2017,10,22,10,40,12.50
2017,10,22,10,41,12.50
2017,10,22,10,42,12.50
2017,10,22,10,43,12.60
2017,10,22,10,44,12.60
2017,10,22,10,45,12.60
2017,10,22,10,46,12.60
2017,10,22,10,47,12.60
2017,10,22,10,48,12.60
2017,10,22,10,49,12.60
2017,10,22,10,50,12.60
2017,10,22,10,51,12.60
2017,10,22,10,52,12.60
2017,10,22,10,53,12.50
2017,10,22,10,54,12.40
2017,10,22,10,55,12.40
2017,10,22,10,56,12.30
2017,10,22,10,57,12.20
2017,10,22,10,58,12.00
2017,10,22,10,59,11.80
2017,10,22,11,00,11.60
2017,10,22,11,01,11.40
2017,10,22,11,02,11.20
2017,10,22,11,03,11.10
2017,10,22,11,04,10.90
2017,10,22,11,05,10.80
2017,10,22,11,06,10.70
2017,10,22,11,07,10.60
2017,10,22,11,08,10.50
2017,10,22,11,09,10.50
2017,10,22,11,10,10.40
2017,10,22,11,11,10.40
2017,10,22,11,12,10.30
2017,10,22,11,13,10.30
2017,10,22,11,14,10.30
2017,10,22,11,15,10.30
2017,10,22,11,16,10.30
2017,10,22,11,17,10.30
2017,10,22,11,18,10.30
2017,10,22,11,19,10.30
2017,10,22,11,20,10.30
2017,10,22,11,21,10.20
2017,10,22,11,22,10.20
2017,10,22,11,23,10.30
2017,10,22,11,24,10.20
2017,10,22,11,25,10.30
2017,10,22,11,26,10.30
2017,10,22,11,27,10.30
2017,10,22,11,28,10.30
2017,10,22,11,29,10.30
2017,10,22,11,30,10.40
2017,10,22,11,31,10.40
2017,10,22,11,32,10.40
2017,10,22,11,33,10.40
2017,10,22,11,34,10.50
2017,10,22,11,35,10.50
2017,10,22,11,36,10.60
2017,10,22,11,37,10.60
2017,10,22,11,38,10.60
2017,10,22,11,39,10.60
2017,10,22,11,40,10.70
2017,10,22,11,41,10.80
2017,10,22,11,42,10.80
2017,10,22,11,43,10.90
2017,10,22,11,44,10.90
2017,10,22,11,45,11.00
2017,10,22,11,46,11.10
2017,10,22,11,47,11.20
2017,10,22,11,48,11.20
2017,10,22,11,49,11.30
2017,10,22,11,50,11.40
2017,10,22,11,51,11.50
2017,10,22,11,52,11.70
2017,10,22,11,53,11.70
2017,10,22,11,54,11.80
2017,10,22,11,55,11.90
2017,10,22,11,56,11.90
2017,10,22,11,57,11.90
2017,10,22,11,58,12.00
2017,10,22,11,59,12.10
2017,10,22,12,00,12.20
2017,10,22,12,01,12.20
2017,10,22,12,02,12.30
2017,10,22,12,03,12.40
2017,10,22,12,04,12.50
2017,10,22,12,05,12.60
2017,10,22,12,06,12.60
2017,10,22,12,07,12.70
2017,10,22,12,08,12.80
2017,10,22,12,09,12.80
2017,10,22,12,10,12.90
2017,10,22,12,11,13.00
2017,10,22,12,12,13.00
2017,10,22,12,13,13.10
2017,10,22,12,14,13.10
2017,10,22,12,15,13.20
2017,10,22,12,16,13.20
2017,10,22,12,17,13.20
2017,10,22,12,18,13.30
2017,10,22,12,19,13.30
2017,10,22,12,20,13.30
2017,10,22,12,21,13.40
2017,10,22,12,22,13.50
2017,10,22,12,23,13.60
2017,10,22,12,24,13.60
2017,10,22,12,25,13.60
2017,10,22,12,26,13.60
2017,10,22,12,27,13.70
2017,10,22,12,28,13.70
2017,10,22,12,29,13.80
2017,10,22,12,30,13.80
2017,10,22,12,31,13.90
2017,10,22,12,32,13.90
2017,10,22,12,33,14.00
2017,10,22,12,34,14.00
2017,10,22,12,35,14.00
2017,10,22,12,36,14.00
2017,10,22,12,37,13.90
2017,10,22,12,38,13.90
2017,10,22,12,39,13.90
2017,10,22,12,40,13.90
2017,10,22,12,41,14.00
2017,10,22,12,42,14.00
2017,10,22,12,43,13.90
2017,10,22,12,44,13.90
2017,10,22,12,45,13.90
2017,10,22,12,46,13.80
2017,10,22,12,47,13.70
2017,10,22,12,48,13.60
2017,10,22,12,49,13.50
2017,10,22,12,50,13.40
2017,10,22,12,51,13.30
2017,10,22,12,52,13.10
2017,10,22,12,53,13.00
2017,10,22,12,54,12.80
2017,10,22,12,55,12.60
2017,10,22,12,56,12.30
2017,10,22,12,57,12.10
2017,10,22,12,58,11.80
2017,10,22,12,59,11.60
2017,10,22,13,00,11.50
2017,10,22,13,01,11.30
2017,10,22,13,02,11.20
2017,10,22,13,03,11.10
2017,10,22,13,04,11.00
2017,10,22,13,05,11.00
2017,10,22,13,06,10.90
2017,10,22,13,07,10.90
2017,10,22,13,08,10.90
2017,10,22,13,09,10.80
2017,10,22,13,10,10.80
2017,10,22,13,11,10.80
2017,10,22,13,12,10.80
2017,10,22,13,13,10.80
2017,10,22,13,14,10.80
2017,10,22,13,15,10.80
2017,10,22,13,16,10.80
2017,10,22,13,17,10.90
2017,10,22,13,18,10.90
2017,10,22,13,19,10.90
2017,10,22,13,20,11.00
2017,10,22,13,21,11.10
2017,10,22,13,22,11.10
2017,10,22,13,23,11.20
2017,10,22,13,24,11.30
2017,10,22,13,25,11.40
2017,10,22,13,26,11.40
2017,10,22,13,27,11.50
2017,10,22,13,28,11.50
2017,10,22,13,29,11.60
2017,10,22,13,30,11.60
2017,10,22,13,31,11.60
2017,10,22,13,32,11.70
2017,10,22,13,33,11.70
2017,10,22,13,34,11.70
2017,10,22,13,35,11.80
2017,10,22,13,36,11.80
2017,10,22,13,37,11.80
2017,10,22,13,38,11.90
2017,10,22,13,39,11.90
2017,10,22,13,40,11.90
2017,10,22,13,41,11.90
2017,10,22,13,42,12.00
2017,10,22,13,43,12.00
2017,10,22,13,44,12.10
2017,10,22,13,45,12.10
2017,10,22,13,46,12.10
2017,10,22,13,47,12.10
2017,10,22,13,48,12.10
2017,10,22,13,49,12.10
2017,10,22,13,50,12.00
2017,10,22,13,51,12.00
2017,10,22,13,52,11.90
2017,10,22,13,53,11.90
2017,10,22,13,54,11.90
2017,10,22,13,55,11.90
2017,10,22,13,56,11.90
2017,10,22,13,57,11.80
2017,10,22,13,58,11.80
2017,10,22,13,59,11.80
2017,10,22,14,00,11.80
2017,10,22,14,01,11.80
2017,10,22,14,02,11.80
2017,10,22,14,03,11.90
2017,10,22,14,04,12.00
2017,10,22,14,05,12.10
2017,10,22,14,06,12.20
2017,10,22,14,07,12.30
2017,10,22,14,08,12.40
2017,10,22,14,09,12.60
2017,10,22,14,10,12.60
2017,10,22,14,11,12.70
2017,10,22,14,12,12.90
2017,10,22,14,13,13.00
2017,10,22,14,14,13.10
2017,10,22,14,15,13.20
2017,10,22,14,16,13.30
2017,10,22,14,17,13.40
2017,10,22,14,18,13.50
2017,10,22,14,19,13.70
2017,10,22,14,20,13.80
2017,10,22,14,21,13.80
2017,10,22,14,22,13.90
2017,10,22,14,23,13.90
2017,10,22,14,24,13.90
2017,10,22,14,25,14.00
2017,10,22,14,26,14.00
2017,10,22,14,27,14.00
2017,10,22,14,28,14.10
2017,10,22,14,29,14.10
2017,10,22,14,30,14.20
2017,10,22,14,31,14.20
2017,10,22,14,32,14.20
2017,10,22,14,33,14.20
2017,10,22,14,34,14.20
2017,10,22,14,35,14.20
2017,10,22,14,36,14.20
2017,10,22,14,37,14.20
2017,10,22,14,38,14.20
2017,10,22,14,39,14.20
2017,10,22,14,40,14.20
2017,10,22,14,41,14.20
2017,10,22,14,42,14.20
2017,10,22,14,43,14.30
2017,10,22,14,44,14.30
2017,10,22,14,45,14.30
2017,10,22,14,46,14.30
2017,10,22,14,47,14.30
2017,10,22,14,48,14.30
2017,10,22,14,49,14.40
2017,10,22,14,50,14.40
2017,10,22,14,51,14.40
2017,10,22,14,52,14.40
2017,10,22,14,53,14.40
2017,10,22,14,54,14.40
2017,10,22,14,55,14.40
2017,10,22,14,56,14.50
2017,10,22,14,57,14.50
2017,10,22,14,58,14.50
2017,10,22,14,59,14.60
2017,10,22,15,00,14.60
2017,10,22,15,01,14.60
2017,10,22,15,02,14.50
2017,10,22,15,03,14.50
2017,10,22,15,04,14.50
2017,10,22,15,05,14.50
2017,10,22,15,06,14.50
2017,10,22,15,07,14.50
2017,10,22,15,08,14.50
2017,10,22,15,09,14.50
2017,10,22,15,10,14.50
2017,10,22,15,11,14.40
2017,10,22,15,12,14.30
2017,10,22,15,13,14.20
2017,10,22,15,14,14.10
2017,10,22,15,15,14.00
2017,10,22,15,16,13.90
2017,10,22,15,17,13.80
2017,10,22,15,18,13.80
2017,10,22,15,19,13.70
2017,10,22,15,20,13.70
2017,10,22,15,21,13.60
2017,10,22,15,22,13.60
2017,10,22,15,23,13.50
2017,10,22,15,24,13.40
2017,10,22,15,25,13.40
2017,10,22,15,26,13.40
2017,10,22,15,27,13.30
2017,10,22,15,28,13.30
2017,10,22,15,29,13.30
2017,10,22,15,30,13.30
2017,10,22,15,31,13.30
2017,10,22,15,32,13.20
2017,10,22,15,33,13.20
2017,10,22,15,34,13.20
2017,10,22,15,35,13.10
2017,10,22,15,36,13.10
2017,10,22,15,37,13.00
2017,10,22,15,38,12.80
2017,10,22,15,39,12.80
2017,10,22,15,40,12.80
2017,10,22,15,41,12.80
2017,10,22,15,42,12.80
2017,10,22,15,43,12.80
2017,10,22,15,44,12.80
2017,10,22,15,45,12.80
2017,10,22,15,46,12.80
2017,10,22,15,47,12.90
2017,10,22,15,48,12.80
2017,10,22,15,49,12.80
2017,10,22,15,50,12.80
2017,10,22,15,51,12.80
2017,10,22,15,52,12.80
2017,10,22,15,53,12.80
2017,10,22,15,54,12.80
2017,10,22,15,55,12.70
2017,10,22,15,56,12.70
2017,10,22,15,57,12.70
2017,10,22,15,58,12.70
2017,10,22,15,59,12.70
2017,10,22,16,00,12.70
2017,10,22,16,01,12.70
2017,10,22,16,02,12.60
2017,10,22,16,03,12.60
2017,10,22,16,04,12.60
2017,10,22,16,05,12.60
2017,10,22,16,06,12.60
2017,10,22,16,07,12.60
2017,10,22,16,08,12.60
2017,10,22,16,09,12.60
2017,10,22,16,10,12.60
2017,10,22,16,11,12.50
2017,10,22,16,12,12.50
2017,10,22,16,13,12.40
2017,10,22,16,14,12.30
2017,10,22,16,15,12.20
2017,10,22,16,16,12.10
2017,10,22,16,17,12.10
2017,10,22,16,18,12.00
2017,10,22,16,19,11.90
2017,10,22,16,20,11.90
2017,10,22,16,21,11.80
2017,10,22,16,22,11.70
2017,10,22,16,23,11.60
2017,10,22,16,24,11.50
2017,10,22,16,25,11.40
2017,10,22,16,26,11.40
2017,10,22,16,27,11.30
2017,10,22,16,28,11.20
2017,10,22,16,29,11.10
2017,10,22,16,30,11.00
2017,10,22,16,31,10.90
2017,10,22,16,32,10.80
2017,10,22,16,33,10.80
2017,10,22,16,34,10.70
2017,10,22,16,35,10.70
2017,10,22,16,36,10.60
2017,10,22,16,37,10.60
2017,10,22,16,38,10.50
2017,10,22,16,39,10.50
2017,10,22,16,40,10.40
2017,10,22,16,41,10.40
2017,10,22,16,42,10.40
2017,10,22,16,43,10.30
2017,10,22,16,44,10.30
2017,10,22,16,45,10.30
2017,10,22,16,46,10.30
2017,10,22,16,47,10.30
2017,10,22,16,48,10.30
2017,10,22,16,49,10.20
2017,10,22,16,50,10.20
2017,10,22,16,51,10.20
2017,10,22,16,52,10.20
2017,10,22,16,53,10.20
2017,10,22,16,54,10.10
2017,10,22,16,55,10.10
2017,10,22,16,56,10.10
2017,10,22,16,57,10.10
2017,10,22,16,58,10.10
2017,10,22,16,59,10.10
2017,10,22,17,00,10.10
2017,10,22,17,01,10.10
2017,10,22,17,02,10.10
2017,10,22,17,03,10.10
2017,10,22,17,04,10.10
2017,10,22,17,05,10.10
2017,10,22,17,06,10.10
2017,10,22,17,07,10.10
2017,10,22,17,08,10.10
2017,10,22,17,09,10.10
2017,10,22,17,10,10.10
2017,10,22,17,11,10.10
2017,10,22,17,12,10.10
2017,10,22,17,13,10.10
2017,10,22,17,14,10.10
2017,10,22,17,15,10.10
2017,10,22,17,16,10.10
2017,10,22,17,17,10.20
2017,10,22,17,18,10.20
2017,10,22,17,19,10.20
2017,10,22,17,20,10.20
2017,10,22,17,21,10.20
2017,10,22,17,22,10.20
2017,10,22,17,23,10.20
2017,10,22,17,24,10.20
2017,10,22,17,25,10.20
2017,10,22,17,26,10.20
2017,10,22,17,27,10.20
2017,10,22,17,28,10.20
2017,10,22,17,29,10.20
2017,10,22,17,30,10.20
2017,10,22,17,31,10.30
2017,10,22,17,32,10.30
2017,10,22,17,33,10.30
2017,10,22,17,34,10.30
2017,10,22,17,35,10.30
2017,10,22,17,36,10.20
2017,10,22,17,37,10.20
2017,10,22,17,38,10.20
2017,10,22,17,39,10.20
2017,10,22,17,40,10.30
2017,10,22,17,41,10.30
2017,10,22,17,42,10.30
2017,10,22,17,43,10.30
2017,10,22,17,44,10.30
2017,10,22,17,45,10.30
2017,10,22,17,46,10.20
2017,10,22,17,47,10.20
2017,10,22,17,48,10.20
2017,10,22,17,49,10.20
2017,10,22,17,50,10.20
2017,10,22,17,51,10.20
2017,10,22,17,52,10.20
2017,10,22,17,53,10.20
2017,10,22,17,54,10.20
2017,10,22,17,55,10.20
2017,10,22,17,56,10.20
2017,10,22,17,57,10.20
2017,10,22,17,58,10.20
2017,10,22,17,59,10.20
2017,10,22,18,00,10.20
2017,10,22,18,01,10.20
2017,10,22,18,02,10.10
2017,10,22,18,03,10.10
2017,10,22,18,04,10.10
2017,10,22,18,05,10.10
2017,10,22,18,06,10.10
2017,10,22,18,07,10.00
2017,10,22,18,08,10.00
2017,10,22,18,09,10.00
2017,10,22,18,10,10.00
2017,10,22,18,11,10.00
2017,10,22,18,12,9.90
2017,10,22,18,13,9.90
2017,10,22,18,14,9.90
2017,10,22,18,15,9.90
2017,10,22,18,16,9.90
2017,10,22,18,17,9.90
2017,10,22,18,18,9.80
2017,10,22,18,19,9.80
2017,10,22,18,20,9.80
2017,10,22,18,21,9.80
2017,10,22,18,22,9.80
2017,10,22,18,23,9.80
2017,10,22,18,24,9.70
2017,10,22,18,25,9.70
2017,10,22,18,26,9.70
2017,10,22,18,27,9.70
2017,10,22,18,28,9.70
2017,10,22,18,29,9.70
2017,10,22,18,30,9.60
2017,10,22,18,31,9.60
2017,10,22,18,32,9.60
2017,10,22,18,33,9.60
2017,10,22,18,34,9.60
2017,10,22,18,35,9.50
2017,10,22,18,36,9.50
2017,10,22,18,37,9.40
2017,10,22,18,38,9.40
2017,10,22,18,39,9.40
2017,10,22,18,40,9.40
2017,10,22,18,41,9.30
2017,10,22,18,42,9.30
2017,10,22,18,43,9.30
2017,10,22,18,44,9.30
2017,10,22,18,45,9.30
2017,10,22,18,46,9.30
2017,10,22,18,47,9.20
2017,10,22,18,48,9.20
2017,10,22,18,49,9.20
2017,10,22,18,50,9.20
2017,10,22,18,51,9.20
2017,10,22,18,52,9.20
2017,10,22,18,53,9.20
2017,10,22,18,54,9.20
2017,10,22,18,55,9.20
2017,10,22,18,56,9.20
2017,10,22,18,57,9.20
2017,10,22,18,58,9.20
2017,10,22,18,59,9.20
2017,10,22,19,00,9.20
2017,10,22,19,01,9.20
2017,10,22,19,02,9.20
2017,10,22,19,03,9.20
2017,10,22,19,04,9.10
2017,10,22,19,05,9.10
2017,10,22,19,06,9.10
2017,10,22,19,07,9.10
2017,10,22,19,08,9.10
2017,10,22,19,09,9.10
2017,10,22,19,10,9.10
2017,10,22,19,11,9.10
2017,10,22,19,12,9.10
2017,10,22,19,13,9.10
2017,10,22,19,14,9.00
2017,10,22,19,15,9.00
2017,10,22,19,16,9.00
2017,10,22,19,17,9.00
2017,10,22,19,18,9.00
2017,10,22,19,19,9.00
2017,10,22,19,20,8.90
2017,10,22,19,21,8.90
2017,10,22,19,22,8.90
2017,10,22,19,23,8.90
2017,10,22,19,24,8.90
2017,10,22,19,25,8.90
2017,10,22,19,26,8.90
2017,10,22,19,27,8.90
2017,10,22,19,28,8.90
2017,10,22,19,29,8.90
2017,10,22,19,30,8.80
2017,10,22,19,31,8.80
2017,10,22,19,32,8.80
2017,10,22,19,33,8.80
2017,10,22,19,34,8.80
2017,10,22,19,35,8.80
2017,10,22,19,36,8.80
2017,10,22,19,37,8.80
2017,10,22,19,38,8.80
2017,10,22,19,39,8.80
2017,10,22,19,40,8.70
2017,10,22,19,41,8.70
2017,10,22,19,42,8.70
2017,10,22,19,43,8.70
2017,10,22,19,44,8.70
2017,10,22,19,45,8.60
2017,10,22,19,46,8.60
2017,10,22,19,47,8.60
2017,10,22,19,48,8.60
2017,10,22,19,49,8.50
2017,10,22,19,50,8.50
2017,10,22,19,51,8.50
2017,10,22,19,52,8.50
2017,10,22,19,53,8.40
2017,10,22,19,54,8.40
2017,10,22,19,55,8.40
2017,10,22,19,56,8.40
2017,10,22,19,57,8.40
2017,10,22,19,58,8.40
2017,10,22,19,59,8.40
2017,10,22,20,00,8.40
2017,10,22,20,01,8.40
2017,10,22,20,02,8.40
2017,10,22,20,03,8.30
2017,10,22,20,04,8.30
2017,10,22,20,05,8.30
2017,10,22,20,06,8.30
2017,10,22,20,07,8.30
2017,10,22,20,08,8.30
2017,10,22,20,09,8.30
2017,10,22,20,10,8.30
2017,10,22,20,11,8.30
2017,10,22,20,12,8.30
2017,10,22,20,13,8.30
2017,10,22,20,14,8.30
2017,10,22,20,15,8.30
2017,10,22,20,16,8.30
2017,10,22,20,17,8.30
2017,10,22,20,18,8.30
2017,10,22,20,19,8.20
2017,10,22,20,20,8.20
2017,10,22,20,21,8.20
2017,10,22,20,22,8.20
2017,10,22,20,23,8.20
2017,10,22,20,24,8.20
2017,10,22,20,25,8.20
2017,10,22,20,26,8.20
2017,10,22,20,27,8.20
2017,10,22,20,28,8.20
2017,10,22,20,29,8.20
2017,10,22,20,30,8.20
2017,10,22,20,31,8.20
2017,10,22,20,32,8.20
2017,10,22,20,33,8.10
2017,10,22,20,34,8.10
2017,10,22,20,35,8.20
2017,10,22,20,36,8.20
2017,10,22,20,37,8.20
2017,10,22,20,38,8.10
2017,10,22,20,39,8.10
2017,10,22,20,40,8.10
2017,10,22,20,41,8.00
2017,10,22,20,42,8.00
2017,10,22,20,43,8.00
2017,10,22,20,44,7.90
2017,10,22,20,45,7.90
2017,10,22,20,46,7.90
2017,10,22,20,47,7.90
2017,10,22,20,48,7.90
2017,10,22,20,49,7.90
2017,10,22,20,50,7.90
2017,10,22,20,51,7.90
2017,10,22,20,52,7.90
2017,10,22,20,53,7.90
2017,10,22,20,54,7.80
2017,10,22,20,55,7.80
2017,10,22,20,56,7.80
2017,10,22,20,57,7.80
2017,10,22,20,58,7.80
2017,10,22,20,59,7.80
2017,10,22,21,00,7.80
2017,10,22,21,01,7.80
2017,10,22,21,02,7.80
2017,10,22,21,03,7.90
2017,10,22,21,04,7.90
2017,10,22,21,05,7.90
2017,10,22,21,06,7.90
2017,10,22,21,07,7.80
2017,10,22,21,08,7.80
2017,10,22,21,09,7.80
2017,10,22,21,10,7.80
2017,10,22,21,11,7.80
2017,10,22,21,12,7.80
2017,10,22,21,13,7.70
2017,10,22,21,14,7.70
2017,10,22,21,15,7.70
2017,10,22,21,16,7.60
2017,10,22,21,17,7.60
2017,10,22,21,18,7.70
2017,10,22,21,19,7.60
2017,10,22,21,20,7.60
2017,10,22,21,21,7.60
2017,10,22,21,22,7.60
2017,10,22,21,23,7.60
2017,10,22,21,24,7.60
2017,10,22,21,25,7.60
2017,10,22,21,26,7.60
2017,10,22,21,27,7.60
2017,10,22,21,28,7.60
2017,10,22,21,29,7.60
2017,10,22,21,30,7.70
2017,10,22,21,31,7.70
2017,10,22,21,32,7.80
2017,10,22,21,33,7.80
2017,10,22,21,34,7.80
2017,10,22,21,35,7.80
2017,10,22,21,36,7.80
2017,10,22,21,37,7.80
2017,10,22,21,38,7.80
2017,10,22,21,39,7.80
2017,10,22,21,40,7.80
2017,10,22,21,41,7.80
2017,10,22,21,42,7.80
2017,10,22,21,43,7.80
2017,10,22,21,44,7.80
2017,10,22,21,45,7.80
2017,10,22,21,46,7.80
2017,10,22,21,47,7.80
2017,10,22,21,48,7.80
2017,10,22,21,49,7.80
2017,10,22,21,50,7.80
2017,10,22,21,51,7.80
2017,10,22,21,52,7.80
2017,10,22,21,53,7.80
2017,10,22,21,54,7.80
2017,10,22,21,55,7.80
2017,10,22,21,56,7.80
2017,10,22,21,57,7.80
2017,10,22,21,58,7.80
2017,10,22,21,59,7.80
2017,10,22,22,00,7.80
2017,10,22,22,01,7.70
2017,10,22,22,02,7.70
2017,10,22,22,03,7.70
2017,10,22,22,04,7.70
2017,10,22,22,05,7.70
2017,10,22,22,06,7.70
2017,10,22,22,07,7.60
2017,10,22,22,08,7.60
2017,10,22,22,09,7.60
2017,10,22,22,10,7.60
2017,10,22,22,11,7.60
2017,10,22,22,12,7.60
2017,10,22,22,13,7.60
2017,10,22,22,14,7.60
2017,10,22,22,15,7.60
2017,10,22,22,16,7.60
2017,10,22,22,17,7.60
2017,10,22,22,18,7.60
2017,10,22,22,19,7.60
2017,10,22,22,20,7.60
2017,10,22,22,21,7.60
2017,10,22,22,22,7.60
2017,10,22,22,23,7.60
2017,10,22,22,24,7.60
2017,10,22,22,25,7.60
2017,10,22,22,26,7.60
2017,10,22,22,27,7.60
2017,10,22,22,28,7.50
2017,10,22,22,29,7.50
2017,10,22,22,30,7.50
2017,10,22,22,31,7.40
2017,10,22,22,32,7.40
2017,10,22,22,33,7.40
2017,10,22,22,34,7.40
2017,10,22,22,35,7.40
2017,10,22,22,36,7.30
2017,10,22,22,37,7.30
2017,10,22,22,38,7.30
2017,10,22,22,39,7.30
2017,10,22,22,40,7.30
2017,10,22,22,41,7.30
2017,10,22,22,42,7.30
2017,10,22,22,43,7.30
2017,10,22,22,44,7.30
2017,10,22,22,45,7.30
2017,10,22,22,46,7.30
2017,10,22,22,47,7.30
2017,10,22,22,48,7.30
2017,10,22,22,49,7.30
2017,10,22,22,50,7.30
2017,10,22,22,51,7.30
2017,10,22,22,52,7.30
2017,10,22,22,53,7.20
2017,10,22,22,54,7.20
2017,10,22,22,55,7.30
2017,10,22,22,56,7.30
2017,10,22,22,57,7.30
2017,10,22,22,58,7.30
2017,10,22,22,59,7.30
2017,10,22,23,00,7.30
2017,10,22,23,01,7.30
2017,10,22,23,02,7.30
2017,10,22,23,03,7.30
2017,10,22,23,04,7.30
2017,10,22,23,05,7.30
2017,10,22,23,06,7.30
2017,10,22,23,07,7.40
2017,10,22,23,08,7.40
2017,10,22,23,09,7.40
2017,10,22,23,10,7.40
2017,10,22,23,11,7.40
2017,10,22,23,12,7.40
2017,10,22,23,13,7.40
2017,10,22,23,14,7.40
2017,10,22,23,15,7.40
2017,10,22,23,16,7.40
2017,10,22,23,17,7.40
2017,10,22,23,18,7.40
2017,10,22,23,19,7.40
2017,10,22,23,20,7.50
2017,10,22,23,21,7.50
2017,10,22,23,22,7.60
2017,10,22,23,23,7.60
2017,10,22,23,24,7.70
2017,10,22,23,25,7.70
2017,10,22,23,26,7.70
2017,10,22,23,27,7.70
2017,10,22,23,28,7.70
2017,10,22,23,29,7.60
2017,10,22,23,30,7.60
2017,10,22,23,31,7.50
2017,10,22,23,32,7.50
2017,10,22,23,33,7.40
2017,10,22,23,34,7.40
2017,10,22,23,35,7.40
2017,10,22,23,36,7.40
2017,10,22,23,37,7.40
2017,10,22,23,38,7.50
2017,10,22,23,39,7.50
2017,10,22,23,40,7.50
2017,10,22,23,41,7.50
2017,10,22,23,42,7.50
2017,10,22,23,43,7.50
2017,10,22,23,44,7.50
2017,10,22,23,45,7.40
2017,10,22,23,46,7.40
2017,10,22,23,47,7.40
2017,10,22,23,48,7.30
2017,10,22,23,49,7.30
2017,10,22,23,50,7.30
2017,10,22,23,51,7.30
2017,10,22,23,52,7.30
2017,10,22,23,53,7.30
2017,10,22,23,54,7.30
2017,10,22,23,55,7.30
2017,10,22,23,56,7.30
2017,10,22,23,57,7.30
2017,10,22,23,58,7.30
2017,10,22,23,59,7.30
